Location: Unspecified
(29.9680°N, 0.0000°E)
Time: 02:34:34
(UTC+00:00)

A-11 Canister half - Pass Details

Date: 24 June 2019
Orbit: 1526 x 1683 km, 47.3° (Epoch: 21 July)

Event Time Altitude Azimuth Distance (km) Brightness Sun altitude
Rises 12:27:37 0° 297° (WNW) 4,681 11.6 81.4°
Reaches altitude 10° 12:31:13 10° 286° (WNW) 3,706 11.2 80.8°
Maximum altitude 12:38:37 27° 233° (SW) 2,634 10.9 79.6°
Drops below altitude 10° 12:46:10 10° 180° (S) 3,774 11.3 78.2°
Sets 12:49:55 0° 168° (SSE) 4,782 11.6 77.5°
